Find Kosmos-2523

NORAD ID: 42986 Int'l Des: 2017-037 Owner: VVKOV Country: RU operational
LEOCIRCULARRETROGRADESSO

現在のビュー

3D地球を読み込み中...

About Kosmos-2523

Kosmos-2523 (NORAD 42986) is a satellite launched Jun 23, 2017 by VVKOV of RU. It operates in LEO, CIRCULAR, RETROGRADE, SSO orbit with a mass of 47.00 kg.

次回通過

Passes for default location (London). Set your location on the main map for personalized predictions.

高度履歴

Loading altitude history...

軌道要素

1 42986U 17037E 26194.83162411 .00000581 00000-0 55159-4 0 9998
2 42986 97.4982 206.7900 0067658 139.3297 221.3006 14.95496541472948
Epoch: Jul 13, 2026 • Age: 8 hours

現在のステータス

高度 646.4 km
遠地点 / 近地点 N/A
速度 7.51 km/s
衛星直下点 -48.53°S, 132.92°W
打ち上げ日 Jun 23, 2017
運用期間 9 years
タイプ other

技術仕様

分類 Payload
質量 47.00 kg
乾燥質量 47.00 kg
総質量 47.00 kg
長さ 0.40 m
直径 0.20 m
スパン 0.40 m
形状 Box
製造者 TSKHM
バスタイプ Naprazheniye
フェーズステータス In Orbit
所有者/国 VVKOV/RU

Most Searched